• In Russia
  • List of Countries
  • For 7 days
  • Water Temperature
  • Weather Map
  • Weather Widgets
  • user-avatar
    Login

    Hourly Weather Hamhŭng

    Today, 24 January, Friday

    Time Temperature Precipitation Wind Pressure Humidity
    00:00 -4°C° 0 mm 4 mps 768 mmHg 72%
    01:00 -4°C° 0 mm 4 mps 769 mmHg 71%
    02:00 -5°C° 0 mm 3 mps 769 mmHg 69%
    03:00 -5°C° 0 mm 3 mps 769 mmHg 68%
    04:00 -6°C° 0 mm 3 mps 770 mmHg 65%
    05:00 -6°C° 0 mm 3 mps 770 mmHg 62%
    06:00 -7°C° 0 mm 3 mps 771 mmHg 60%
    07:00 -7°C° 0 mm 3 mps 771 mmHg 57%
    08:00 -6°C° 0 mm 3 mps 772 mmHg 55%
    09:00 -6°C° 0 mm 3 mps 773 mmHg 52%
    10:00 -3°C° 0 mm 2 mps 772 mmHg 50%
    11:00 +1°C° 0 mm 1 mps 772 mmHg 48%
    12:00 +2°C° 0 mm 1 mps 772 mmHg 46%
    13:00 +3°C° 0 mm 1 mps 771 mmHg 47%
    14:00 +3°C° 0 mm 1 mps 771 mmHg 49%
    15:00 +4°C° 0 mm 1 mps 770 mmHg 46%
    16:00 +2°C° 0 mm 1 mps 771 mmHg 53%
    17:00 +1°C° 0 mm 1 mps 771 mmHg 60%
    18:00 0°C° 0 mm 1 mps 772 mmHg 67%
    19:00 0°C° 0.1 mm 1 mps 772 mmHg 68%
    20:00 -2°C° 0.1 mm 2 mps 772 mmHg 68%
    21:00 -2°C° 0 mm 2 mps 772 mmHg 61%
    22:00 -2°C° 0.1 mm 2 mps 772 mmHg 65%
    23:00 -2°C° 0.1 mm 2 mps 772 mmHg 70%

    Tomorrow, 25 January, Saturday

    Time Temperature Precipitation Wind Pressure Humidity
    00:00 -2°C° 0.1 mm 2 mps 772 mmHg 74%
    01:00 -2°C° 0 mm 2 mps 772 mmHg 76%
    02:00 -2°C° 0 mm 2 mps 771 mmHg 77%
    03:00 -1°C° 0 mm 2 mps 771 mmHg 79%
    04:00 0°C° 0 mm 1 mps 771 mmHg 79%
    05:00 0°C° 0 mm 1 mps 771 mmHg 79%
    06:00 0°C° 0 mm 1 mps 771 mmHg 79%
    07:00 0°C° 0 mm 1 mps 771 mmHg 77%
    08:00 0°C° 0 mm 1 mps 771 mmHg 74%
    09:00 0°C° 0 mm 1 mps 770 mmHg 72%
    10:00 +2°C° 0 mm 1 mps 770 mmHg 71%
    11:00 +3°C° 0 mm 1 mps 770 mmHg 69%
    12:00 +4°C° 0 mm 1 mps 769 mmHg 67%
    13:00 +4°C° 0 mm 1 mps 769 mmHg 68%
    14:00 +4°C° 0 mm 0 mps 768 mmHg 69%
    15:00 +4°C° 0 mm 0 mps 768 mmHg 70%
    16:00 +3°C° 0 mm 0 mps 768 mmHg 75%
    17:00 +1°C° 0 mm 0 mps 768 mmHg 79%
    18:00 0°C° 0 mm 0 mps 768 mmHg 84%
    19:00 +1°C° 0 mm 1 mps 769 mmHg 82%
    20:00 0°C° 0 mm 1 mps 769 mmHg 80%
    21:00 0°C° 0 mm 1 mps 769 mmHg 79%
    22:00 -2°C° 0 mm 2 mps 769 mmHg 75%
    23:00 -3°C° 0 mm 2 mps 769 mmHg 72%

    Day after tomorrow, 26 January, Sunday

    Time Temperature Precipitation Wind Pressure Humidity
    00:00 -3°C° 0 mm 2 mps 770 mmHg 68%
    01:00 -3°C° 0 mm 2 mps 770 mmHg 67%
    02:00 -4°C° 0 mm 2 mps 770 mmHg 65%
    03:00 -4°C° 0 mm 2 mps 770 mmHg 64%
    04:00 -4°C° 0 mm 2 mps 770 mmHg 63%
    05:00 -4°C° 0 mm 2 mps 770 mmHg 63%
    06:00 -4°C° 0 mm 2 mps 770 mmHg 63%
    07:00 -4°C° 0 mm 2 mps 770 mmHg 62%
    08:00 -3°C° 0 mm 2 mps 770 mmHg 62%
    09:00 -3°C° 0 mm 2 mps 771 mmHg 62%
    10:00 -1°C° 0 mm 2 mps 771 mmHg 60%
    11:00 +2°C° 0 mm 1 mps 771 mmHg 58%
    12:00 +4°C° 0 mm 1 mps 771 mmHg 56%
    13:00 +4°C° 0 mm 1 mps 770 mmHg 59%
    14:00 +4°C° 0 mm 1 mps 769 mmHg 61%
    15:00 +4°C° 0 mm 1 mps 769 mmHg 64%
    16:00 +3°C° 0 mm 1 mps 769 mmHg 69%
    17:00 +2°C° 0 mm 1 mps 770 mmHg 74%
    18:00 +1°C° 0 mm 1 mps 770 mmHg 80%
    19:00 -1°C° 0 mm 2 mps 770 mmHg 79%
    20:00 -1°C° 0 mm 2 mps 770 mmHg 79%
    21:00 -2°C° 0 mm 2 mps 770 mmHg 79%
    22:00 -2°C° 0 mm 2 mps 770 mmHg 77%
    23:00 -2°C° 0 mm 2 mps 770 mmHg 76%

    27 January, Monday

    Time Temperature Precipitation Wind Pressure Humidity
    00:00 -1°C° 0 mm 2 mps 770 mmHg 75%
    01:00 -1°C° 0 mm 2 mps 770 mmHg 75%
    02:00 -2°C° 0 mm 2 mps 770 mmHg 76%
    03:00 -2°C° 0 mm 2 mps 769 mmHg 76%
    04:00 -2°C° 0 mm 2 mps 769 mmHg 76%
    05:00 -2°C° 0 mm 2 mps 769 mmHg 75%
    06:00 -2°C° 0 mm 2 mps 769 mmHg 75%
    07:00 -2°C° 0 mm 2 mps 769 mmHg 74%
    08:00 -1°C° 0 mm 2 mps 769 mmHg 73%
    09:00 -1°C° 0 mm 2 mps 769 mmHg 72%
    10:00 +1°C° 0 mm 2 mps 768 mmHg 70%
    11:00 +2°C° 0 mm 2 mps 768 mmHg 69%
    12:00 +4°C° 0 mm 2 mps 767 mmHg 67%
    13:00 +4°C° 0 mm 2 mps 767 mmHg 68%
    14:00 +5°C° 0 mm 1 mps 766 mmHg 68%
    15:00 +5°C° 0 mm 1 mps 766 mmHg 68%
    16:00 +4°C° 0 mm 1 mps 766 mmHg 72%
    17:00 +3°C° 0 mm 1 mps 766 mmHg 75%
    18:00 +3°C° 0 mm 1 mps 767 mmHg 78%
    19:00 +2°C° 0 mm 1 mps 767 mmHg 78%
    20:00 +1°C° 0 mm 2 mps 767 mmHg 77%
    21:00 +1°C° 0 mm 2 mps 767 mmHg 77%
    22:00 +1°C° 0 mm 2 mps 767 mmHg 76%
    23:00 -1°C° 0 mm 2 mps 767 mmHg 74%

    28 January, Tuesday

    Time Temperature Precipitation Wind Pressure Humidity
    00:00 -1°C° 0 mm 2 mps 767 mmHg 73%
    01:00 -1°C° 0 mm 2 mps 767 mmHg 73%
    02:00 -1°C° 0 mm 2 mps 767 mmHg 73%
    03:00 -1°C° 0 mm 2 mps 767 mmHg 73%
    04:00 -1°C° 0 mm 2 mps 767 mmHg 72%
    05:00 -1°C° 0 mm 2 mps 766 mmHg 72%
    06:00 -1°C° 0 mm 2 mps 766 mmHg 71%
    07:00 -1°C° 0 mm 2 mps 766 mmHg 71%
    08:00 +1°C° 0 mm 2 mps 766 mmHg 70%
    09:00 +1°C° 0 mm 2 mps 766 mmHg 70%
    10:00 +2°C° 0 mm 2 mps 766 mmHg 69%
    11:00 +4°C° 0 mm 1 mps 766 mmHg 67%
    12:00 +5°C° 0 mm 1 mps 766 mmHg 66%
    13:00 +6°C° 0 mm 1 mps 765 mmHg 67%
    14:00 +6°C° 0 mm 1 mps 765 mmHg 68%
    15:00 +6°C° 0 mm 1 mps 765 mmHg 69%
    16:00 +5°C° 0 mm 1 mps 765 mmHg 74%
    17:00 +4°C° 0 mm 1 mps 765 mmHg 79%
    18:00 +3°C° 0 mm 1 mps 765 mmHg 85%
    19:00 +3°C° 0 mm 1 mps 765 mmHg 84%
    20:00 +2°C° 0 mm 1 mps 765 mmHg 84%
    21:00 +1°C° 0 mm 2 mps 765 mmHg 84%
    22:00 +1°C° 0 mm 2 mps 765 mmHg 83%
    23:00 +1°C° 0 mm 2 mps 765 mmHg 83%

    29 January, Wednesday

    Time Temperature Precipitation Wind Pressure Humidity
    00:00 +1°C° 0 mm 2 mps 765 mmHg 83%
    01:00 +1°C° 0 mm 2 mps 765 mmHg 82%
    02:00 +1°C° 0 mm 2 mps 765 mmHg 82%
    03:00 -1°C° 0 mm 2 mps 765 mmHg 81%
    04:00 +1°C° 0 mm 1 mps 764 mmHg 80%
    05:00 +1°C° 0 mm 1 mps 764 mmHg 79%
    06:00 +1°C° 0 mm 1 mps 764 mmHg 78%
    07:00 +1°C° 0 mm 1 mps 764 mmHg 77%
    08:00 +2°C° 0 mm 1 mps 764 mmHg 76%
    09:00 +2°C° 0 mm 1 mps 764 mmHg 74%
    10:00 +3°C° 0 mm 1 mps 763 mmHg 73%
    11:00 +4°C° 0 mm 1 mps 763 mmHg 72%
    12:00 +4°C° 0 mm 1 mps 762 mmHg 71%
    13:00 +5°C° 0 mm 1 mps 762 mmHg 72%
    14:00 +5°C° 0 mm 1 mps 761 mmHg 73%
    15:00 +5°C° 0 mm 1 mps 761 mmHg 73%
    16:00 +4°C° 0 mm 1 mps 761 mmHg 77%
    17:00 +3°C° 0 mm 1 mps 761 mmHg 80%
    18:00 +3°C° 0 mm 1 mps 761 mmHg 83%
    19:00 +3°C° 0 mm 1 mps 761 mmHg 84%
    20:00 +2°C° 0 mm 1 mps 761 mmHg 84%
    21:00 +2°C° 0 mm 1 mps 761 mmHg 85%
    22:00 +2°C° 0 mm 1 mps 761 mmHg 85%
    23:00 +2°C° 0 mm 1 mps 761 mmHg 85%
    Show more